Time,TemperatureF,DewpointF,PressureIn,WindDirection,WindDirectionDegrees,WindSpeedMPH,WindSpeedGustMPH,Humidity,HourlyPrecipIn,Conditions,Clouds,dailyrainin,SolarRadiationWatts/m^2,SoftwareType,DateUTC
2013-04-05 00:02:00,39.0,36.0,-100.00,SW,220,11.0,26.0,88,0.00,,,0.02,1.000000,,2013-04-05 07:02:00,
2013-04-05 00:12:00,39.0,36.0,-100.00,SW,220,11.0,26.0,88,0.00,,,0.02,1.000000,,2013-04-05 07:12:00,
2013-04-05 00:22:00,39.0,36.0,-100.00,SW,220,11.0,26.0,88,0.00,,,0.02,1.000000,,2013-04-05 07:22:00,
2013-04-05 00:52:00,37.0,36.0,-100.00,SSW,213,14.0,25.0,98,0.04,,,0.06,1.000000,,2013-04-05 07:52:00,
2013-04-05 01:02:00,37.0,36.0,-100.00,SSW,213,14.0,25.0,98,0.04,,,0.06,1.000000,,2013-04-05 08:02:00,
2013-04-05 01:12:00,37.0,36.0,-100.00,SSW,213,14.0,25.0,98,0.04,,,0.06,1.000000,,2013-04-05 08:12:00,
2013-04-05 01:22:00,37.0,36.0,-100.00,SSW,213,14.0,25.0,98,0.04,,,0.06,1.000000,,2013-04-05 08:22:00,
2013-04-05 01:52:00,37.0,37.0,-100.00,SW,219,13.0,22.0,99,0.00,,,0.06,1.000000,,2013-04-05 08:52:00,
2013-04-05 02:02:00,37.0,37.0,-100.00,SW,219,13.0,22.0,99,0.00,,,0.06,1.000000,,2013-04-05 09:02:00,
2013-04-05 02:12:00,37.0,37.0,-100.00,SW,219,13.0,22.0,99,0.00,,,0.06,1.000000,,2013-04-05 09:12:00,
2013-04-05 02:22:00,37.0,37.0,-100.00,SW,219,13.0,22.0,99,0.00,,,0.06,1.000000,,2013-04-05 09:22:00,
2013-04-05 02:43:00,36.0,35.0,-100.00,SSW,213,10.0,19.0,98,0.00,,,-99.99,1.000000,,2013-04-05 09:43:00,
2013-04-05 02:53:00,36.0,35.0,-100.00,SSW,213,10.0,19.0,98,0.00,,,-99.99,1.000000,,2013-04-05 09:53:00,
2013-04-05 03:02:00,36.0,35.0,-100.00,SSW,213,10.0,19.0,98,0.00,,,-99.99,1.000000,,2013-04-05 10:02:00,
2013-04-05 03:12:00,36.0,35.0,-100.00,SSW,213,10.0,19.0,98,0.00,,,-99.99,1.000000,,2013-04-05 10:12:00,
2013-04-05 03:22:00,36.0,35.0,-100.00,SSW,213,10.0,19.0,98,0.00,,,-99.99,1.000000,,2013-04-05 10:22:00,
2013-04-05 03:53:00,36.0,35.0,-100.00,SSW,212,11.0,25.0,96,0.00,,,0.06,1.000000,,2013-04-05 10:53:00,
2013-04-05 04:02:00,36.0,35.0,-100.00,SSW,212,11.0,25.0,96,0.00,,,0.06,1.000000,,2013-04-05 11:02:00,
2013-04-05 04:12:00,36.0,35.0,-100.00,SSW,212,11.0,25.0,96,0.00,,,0.06,1.000000,,2013-04-05 11:12:00,
2013-04-05 04:21:00,36.0,35.0,-100.00,SSW,212,11.0,25.0,96,0.00,,,0.06,1.000000,,2013-04-05 11:21:00,
2013-04-05 04:42:00,36.0,34.0,-100.00,SSW,213,10.0,16.0,94,0.00,,,0.06,1.000000,,2013-04-05 11:42:00,
2013-04-05 04:52:00,36.0,34.0,-100.00,SSW,213,10.0,16.0,94,0.00,,,0.06,1.000000,,2013-04-05 11:52:00,
2013-04-05 05:02:00,36.0,34.0,-100.00,SSW,213,10.0,16.0,94,0.00,,,0.06,1.000000,,2013-04-05 12:02:00,
2013-04-05 05:12:00,36.0,34.0,-100.00,SSW,213,10.0,16.0,94,0.00,,,0.06,1.000000,,2013-04-05 12:12:00,
2013-04-05 05:22:00,36.0,34.0,-100.00,SSW,213,10.0,16.0,94,0.00,,,0.06,1.000000,,2013-04-05 12:22:00,
2013-04-05 05:42:00,36.0,35.0,-100.00,SSW,207,11.0,18.0,96,0.01,,,0.07,1.000000,,2013-04-05 12:42:00,
2013-04-05 05:52:00,36.0,35.0,-100.00,SSW,207,11.0,18.0,96,0.01,,,0.07,1.000000,,2013-04-05 12:52:00,
2013-04-05 06:02:00,36.0,35.0,-100.00,SSW,207,11.0,18.0,96,0.01,,,0.07,1.000000,,2013-04-05 13:02:00,
2013-04-05 06:12:00,36.0,35.0,-100.00,SSW,207,11.0,18.0,96,0.01,,,0.07,1.000000,,2013-04-05 13:12:00,
2013-04-05 06:21:00,36.0,35.0,-100.00,SSW,207,11.0,18.0,96,0.01,,,0.07,1.000000,,2013-04-05 13:21:00,
2013-04-05 06:52:00,36.0,34.0,-100.00,SW,215,13.0,19.0,94,0.00,,,0.07,1.000000,,2013-04-05 13:52:00,
2013-04-05 07:12:00,36.0,34.0,-100.00,SW,215,13.0,19.0,94,0.00,,,0.07,1.000000,,2013-04-05 14:12:00,
2013-04-05 07:22:00,36.0,34.0,-100.00,SW,215,13.0,19.0,94,0.00,,,0.07,1.000000,,2013-04-05 14:22:00,
2013-04-05 07:53:00,37.0,35.0,-100.00,SSW,212,9.0,18.0,91,0.00,,,0.07,18.000000,,2013-04-05 14:53:00,
2013-04-05 08:02:00,37.0,35.0,-100.00,SSW,212,9.0,18.0,91,0.00,,,0.07,18.000000,,2013-04-05 15:02:00,
2013-04-05 08:12:00,37.0,35.0,-100.00,SSW,212,9.0,18.0,91,0.00,,,0.07,18.000000,,2013-04-05 15:12:00,
2013-04-05 08:22:00,37.0,35.0,-100.00,SSW,212,9.0,18.0,91,0.00,,,0.07,18.000000,,2013-04-05 15:22:00,
2013-04-05 08:53:00,37.0,35.0,-100.00,SSW,208,6.0,15.0,91,0.00,,,0.07,53.000000,,2013-04-05 15:53:00,
2013-04-05 09:02:00,37.0,35.0,-100.00,SSW,208,6.0,15.0,91,0.00,,,0.07,53.000000,,2013-04-05 16:02:00,
2013-04-05 09:13:00,37.0,35.0,-100.00,SSW,208,6.0,15.0,91,0.00,,,0.07,53.000000,,2013-04-05 16:13:00,
2013-04-05 09:22:00,37.0,35.0,-100.00,SSW,208,6.0,15.0,91,0.00,,,0.07,53.000000,,2013-04-05 16:22:00,
2013-04-05 09:53:00,40.0,37.0,-100.00,SW,226,9.0,20.0,88,0.00,,,0.07,191.000000,,2013-04-05 16:53:00,
2013-04-05 10:03:00,40.0,37.0,-100.00,SW,226,9.0,20.0,88,0.00,,,0.07,191.000000,,2013-04-05 17:03:00,
2013-04-05 10:12:00,40.0,37.0,-100.00,SW,226,9.0,20.0,88,0.00,,,0.07,191.000000,,2013-04-05 17:12:00,
2013-04-05 10:22:00,40.0,37.0,-100.00,SW,226,9.0,20.0,88,0.00,,,0.07,191.000000,,2013-04-05 17:22:00,
2013-04-05 10:45:00,44.0,36.0,-100.00,SW,223,15.0,28.0,74,0.01,,,0.08,487.000000,,2013-04-05 17:45:00,
2013-04-05 10:52:00,44.0,36.0,-100.00,SW,223,15.0,28.0,74,0.01,,,0.08,487.000000,,2013-04-05 17:52:00,
2013-04-05 11:02:00,44.0,36.0,-100.00,SW,223,15.0,28.0,74,0.01,,,0.08,487.000000,,2013-04-05 18:02:00,
2013-04-05 11:12:00,44.0,36.0,-100.00,SW,223,15.0,28.0,74,0.01,,,0.08,487.000000,,2013-04-05 18:12:00,
2013-04-05 11:22:00,44.0,36.0,-100.00,SW,223,15.0,28.0,74,0.01,,,0.08,487.000000,,2013-04-05 18:22:00,
2013-04-05 11:43:00,45.0,40.0,-100.00,SSW,212,9.0,24.0,82,0.01,,,0.09,492.000000,,2013-04-05 18:43:00,
2013-04-05 11:52:00,45.0,40.0,-100.00,SSW,212,9.0,24.0,82,0.01,,,0.09,492.000000,,2013-04-05 18:52:00,
2013-04-05 12:02:00,45.0,40.0,-100.00,SSW,212,9.0,24.0,82,0.01,,,0.09,492.000000,,2013-04-05 19:02:00,
2013-04-05 12:13:00,45.0,40.0,-100.00,SSW,212,9.0,24.0,82,0.01,,,0.09,492.000000,,2013-04-05 19:13:00,
2013-04-05 12:21:00,45.0,40.0,-100.00,SSW,212,9.0,24.0,82,0.01,,,0.09,492.000000,,2013-04-05 19:21:00,
2013-04-05 12:52:00,44.0,34.0,-100.00,SW,217,13.0,22.0,68,0.00,,,0.09,493.000000,,2013-04-05 19:52:00,
2013-04-05 13:02:00,44.0,34.0,-100.00,SW,217,13.0,22.0,68,0.00,,,0.09,493.000000,,2013-04-05 20:02:00,
2013-04-05 13:11:00,44.0,34.0,-100.00,SW,217,13.0,22.0,68,0.00,,,0.09,493.000000,,2013-04-05 20:11:00,
2013-04-05 13:22:00,44.0,34.0,-100.00,SW,217,13.0,22.0,68,0.00,,,0.09,493.000000,,2013-04-05 20:22:00,
2013-04-05 13:43:00,52.0,36.0,-100.00,WSW,243,8.0,18.0,55,0.00,,,0.09,658.000000,,2013-04-05 20:43:00,
2013-04-05 13:52:00,52.0,36.0,-100.00,WSW,243,8.0,18.0,55,0.00,,,0.09,658.000000,,2013-04-05 20:52:00,
2013-04-05 14:02:00,52.0,36.0,-100.00,WSW,243,8.0,18.0,55,0.00,,,0.09,658.000000,,2013-04-05 21:02:00,
2013-04-05 14:12:00,52.0,36.0,-100.00,WSW,243,8.0,18.0,55,0.00,,,0.09,658.000000,,2013-04-05 21:12:00,
2013-04-05 14:22:00,52.0,36.0,-100.00,WSW,243,8.0,18.0,55,0.00,,,0.09,658.000000,,2013-04-05 21:22:00,
2013-04-05 14:54:00,51.0,34.0,-100.00,SW,222,8.0,20.0,53,0.00,,,0.09,511.000000,,2013-04-05 21:54:00,
2013-04-05 15:03:00,51.0,34.0,-100.00,SW,222,8.0,20.0,53,0.00,,,0.09,511.000000,,2013-04-05 22:03:00,
2013-04-05 15:12:00,51.0,34.0,-100.00,SW,222,8.0,20.0,53,0.00,,,0.09,511.000000,,2013-04-05 22:12:00,
2013-04-05 15:22:00,51.0,34.0,-100.00,SW,222,8.0,20.0,53,0.00,,,0.09,511.000000,,2013-04-05 22:22:00,
2013-04-05 15:53:00,46.0,34.0,-100.00,SW,219,13.0,21.0,62,0.00,,,0.07,447.000000,,2013-04-05 22:53:00,
2013-04-05 16:02:00,46.0,34.0,-100.00,SW,219,13.0,21.0,62,0.00,,,0.07,447.000000,,2013-04-05 23:02:00,
2013-04-05 16:12:00,46.0,34.0,-100.00,SW,219,13.0,21.0,62,0.00,,,0.07,447.000000,,2013-04-05 23:12:00,
2013-04-05 16:22:00,46.0,34.0,-100.00,SW,219,13.0,21.0,62,0.00,,,0.07,447.000000,,2013-04-05 23:22:00,
2013-04-05 16:42:00,43.0,37.0,-100.00,SW,224,9.0,18.0,78,0.00,,,0.07,161.000000,,2013-04-05 23:42:00,
2013-04-05 16:53:00,43.0,37.0,-100.00,SW,224,9.0,18.0,78,0.00,,,0.07,161.000000,,2013-04-05 23:53:00,
2013-04-05 17:02:00,43.0,37.0,-100.00,SW,224,9.0,18.0,78,0.00,,,0.07,161.000000,,2013-04-06 00:02:00,
2013-04-05 17:12:00,43.0,37.0,-100.00,SW,224,9.0,18.0,78,0.00,,,0.07,161.000000,,2013-04-06 00:12:00,
2013-04-05 17:22:00,43.0,37.0,-100.00,SW,224,9.0,18.0,78,0.00,,,0.07,161.000000,,2013-04-06 00:22:00,
2013-04-05 17:52:00,41.0,38.0,-100.00,SW,220,5.0,23.0,90,0.03,,,0.10,71.000000,,2013-04-06 00:52:00,
2013-04-05 18:02:00,41.0,38.0,-100.00,SW,220,5.0,23.0,90,0.03,,,0.10,71.000000,,2013-04-06 01:02:00,
2013-04-05 18:12:00,41.0,38.0,-100.00,SW,220,5.0,23.0,90,0.03,,,0.10,71.000000,,2013-04-06 01:12:00,
2013-04-05 18:22:00,41.0,38.0,-100.00,SW,220,5.0,23.0,90,0.03,,,0.10,71.000000,,2013-04-06 01:22:00,
2013-04-05 18:53:00,41.0,37.0,-100.00,SW,214,8.0,21.0,84,0.00,,,0.10,86.000000,,2013-04-06 01:53:00,
2013-04-05 19:02:00,41.0,37.0,-100.00,SW,214,8.0,21.0,84,0.00,,,0.10,86.000000,,2013-04-06 02:02:00,
2013-04-05 19:12:00,41.0,37.0,-100.00,SW,214,8.0,21.0,84,0.00,,,0.10,86.000000,,2013-04-06 02:12:00,
2013-04-05 19:22:00,41.0,37.0,-100.00,SW,214,8.0,21.0,84,0.00,,,0.10,86.000000,,2013-04-06 02:22:00,
2013-04-05 19:52:00,39.0,37.0,-100.00,SW,223,8.0,16.0,91,0.01,,,0.11,29.000000,,2013-04-06 02:52:00,
2013-04-05 20:02:00,39.0,37.0,-100.00,SW,223,8.0,16.0,91,0.01,,,0.11,29.000000,,2013-04-06 03:02:00,
2013-04-05 20:12:00,39.0,37.0,-100.00,SW,223,8.0,16.0,91,0.01,,,0.11,29.000000,,2013-04-06 03:12:00,
2013-04-05 20:22:00,39.0,37.0,-100.00,SW,223,8.0,16.0,91,0.01,,,0.11,29.000000,,2013-04-06 03:22:00,
2013-04-05 20:43:00,39.0,38.0,-100.00,SSW,203,6.0,15.0,95,0.01,,,0.12,2.000000,,2013-04-06 03:43:00,
2013-04-05 20:54:00,39.0,38.0,-100.00,SSW,203,6.0,15.0,95,0.01,,,0.12,2.000000,,2013-04-06 03:54:00,
2013-04-05 21:03:00,39.0,38.0,-100.00,SSW,203,6.0,15.0,95,0.01,,,0.12,2.000000,,2013-04-06 04:03:00,
2013-04-05 21:13:00,39.0,38.0,-100.00,SSW,203,6.0,15.0,95,0.01,,,0.12,2.000000,,2013-04-06 04:13:00,
2013-04-05 21:22:00,39.0,38.0,-100.00,SSW,203,6.0,15.0,95,0.01,,,0.12,2.000000,,2013-04-06 04:22:00,
2013-04-05 21:53:00,39.0,38.0,-100.00,SSW,198,6.0,11.0,95,0.00,,,0.12,1.000000,,2013-04-06 04:53:00,
2013-04-05 22:02:00,39.0,38.0,-100.00,SSW,198,6.0,11.0,95,0.00,,,0.12,1.000000,,2013-04-06 05:02:00,
2013-04-05 22:12:00,39.0,38.0,-100.00,SSW,198,6.0,11.0,95,0.00,,,0.12,1.000000,,2013-04-06 05:12:00,
2013-04-05 22:22:00,39.0,38.0,-100.00,SSW,198,6.0,11.0,95,0.00,,,0.12,1.000000,,2013-04-06 05:22:00,
2013-04-05 22:52:00,38.0,37.0,-100.00,SSW,205,7.0,13.0,96,0.00,,,0.12,1.000000,,2013-04-06 05:52:00,
2013-04-05 23:02:00,38.0,37.0,-100.00,SSW,205,7.0,13.0,96,0.00,,,0.12,1.000000,,2013-04-06 06:02:00,
2013-04-05 23:12:00,38.0,37.0,-100.00,SSW,205,7.0,13.0,96,0.00,,,0.12,1.000000,,2013-04-06 06:12:00,
2013-04-05 23:22:00,38.0,37.0,-100.00,SSW,205,7.0,13.0,96,0.00,,,0.12,1.000000,,2013-04-06 06:22:00,
2013-04-05 23:43:00,39.0,37.0,-100.00,SSW,204,10.0,19.0,91,0.01,,,0.13,1.000000,,2013-04-06 06:43:00,
2013-04-05 23:52:00,39.0,37.0,-100.00,SSW,204,10.0,19.0,91,0.01,,,0.13,1.000000,,2013-04-06 06:52:00,